Flag for Paraguay Weather past 2 weeks in Asuncion, Paraguay

Now
72 °F

Low clouds.


Feels Like: 67 °F
Forecast: 68 / 74 °F
Wind: 9 mph from South

Location: Asuncion / Aeropuerto

Current Time: May 25, 2015 at 10:12:41 AM

Latest Report: May 25, 2015 at 10:00 AM


Visibility: N/A

Pressure: 29.98 "Hg

Humidity: 94%

Dew point: 70 °F

Location of AsuncionLocation

Historic Weather in Asuncion — Graph

°F

Asuncion temperature yesterday

Maximum temperature yesterday: 82 °F (at 3:00 PM)
Minimum temperature yesterday: 72 °F (at 12:00 AM)
Average temperature yesterday: 75 °F

Past Weeks' High & Low Weather Summary

 TemperatureHumidityPressure
High102 °F (May 23, 3:00 PM)100% (May 12, 3:00 AM)30.18 "Hg (May 12, 3:00 AM)
Low54 °F (May 12, 5:00 AM)40% (May 23, 3:00 PM)29.71 "Hg (May 23, 5:00 PM)
Average71 °F86%30.00 "Hg
* Reported May 10 8:00 AM — May 25 8:30 AM, Asuncion, Weather by CustomWeather, © 2015

Note: Actual official high and low records may vary slightly from our data, if they occured in-between our weather recording intervals... More about our weather records

Advertising

Asuncion weather history for previous 24 hours

 ConditionsComfort  
Time TempWeatherWind HumidityBarometerVisibility
8:30 AM
Mon, May 25
70 °FDrizzle. Low clouds.8 mph100%29.98 "Hg2 mi
8:00 AM70 °FDrizzle. Low clouds.7 mph100%29.98 "Hg4 mi
7:15 AM70 °FDrizzle. Low clouds.8 mph100%29.95 "Hg1 mi
7:00 AM70 °FDrizzle. Low clouds.9 mph100%29.95 "Hg2 mi
6:00 AM72 °FLow clouds.7 mph94%29.92 "HgN/A
5:00 AM72 °FDrizzle. Low clouds.8 mph94%29.92 "HgN/A
4:00 AM72 °FDrizzle. Low clouds.6 mph94%29.92 "HgN/A
1:00 AM72 °FDrizzle. Overcast.7 mph100%29.92 "HgN/A
12:00 AM73 °FOvercast.6 mph94%29.92 "HgN/A
11:00 PM
Sun, May 24
73 °FOvercast.3 mph94%29.92 "HgN/A
10:00 PM73 °FPassing clouds.8 mph94%29.89 "HgN/A
9:00 PM73 °FPassing clouds.10 mph94%29.86 "HgN/A
8:00 PM73 °FPartly cloudy.8 mph94%29.86 "HgN/A
7:00 PM75 °FPassing clouds.6 mph94%29.86 "HgN/A
6:00 PM75 °FPassing clouds.7 mph94%29.83 "HgN/A
5:00 PM77 °FPassing clouds.9 mph89%29.80 "HgN/A
4:00 PM81 °FPartly sunny.7 mph79%29.77 "HgN/A
3:00 PM82 °FBroken clouds.N/A79%29.77 "HgN/A
2:00 PM81 °FPartly sunny.6 mph79%29.77 "HgN/A
1:00 PM79 °FPartly sunny.3 mph84%29.80 "HgN/A
12:00 PM81 °FPartly sunny.2 mph84%29.83 "HgN/A
11:00 AM77 °FOvercast.3 mph94%29.86 "HgN/A
10:00 AM77 °FMostly cloudy.3 mph94%29.86 "HgN/A
Weather by CustomWeather, © 2015

See weather overviewHow to use our weather pages